{"data":{"norad_id":63842,"intl_designator":"2025-093G","name":"STARLINK-34026","alt_names":[],"object_type":"PAYLOAD","status":"ACTIVE","operator":null,"country":"US","launch_date":"2025-05-07","launch_site_code":"AFETR","launch_vehicle":null,"mission":null,"orbit_class":"UNKNOWN","rcs_meters":null,"size_class":null,"mass_kg":null,"dimensions":null,"purposes":["comms"],"wikipedia_slug":null,"has_3d_model":false,"image_url":null,"decayed_at":null,"tle_current":{"epoch":"2026-09-19T18:48:15.711552Z","epoch_age_seconds":211822,"freshness":"STALE","line1":"1 63842U 25093G   26262.78351518  .00010854  00000+0  40319-3 0  9995","line2":"2 63842  43.0032  61.9906 0002941 256.3761 103.6763 15.27593316 77433","mean_motion":15.27593316,"eccentricity":0.0002941,"inclination_deg":43.0032,"raan_deg":61.9906,"arg_perigee_deg":256.3761,"mean_anomaly_deg":103.6763,"bstar":0.00040319,"rev_number":7743,"period_min":94.265926992312,"perigee_km":480.99136033058,"apogee_km":485.0270865392,"semimajor_km":6861.1462234349,"source":"CELESTRAK","updated_at":"2026-09-21T09:00:35.132143Z"}}}